Zurück zum Katalog

STARLINK-37027

AktivKommunikationVLEO
NORAD 68232·PAYLOAD·🇺🇸 United States

Gestartet Mar 17, 2026 von Vandenberg Space Force Base

Loading…

Nächste Überflüge (nächste 24 Stunden)

TLE

AktuellSource: CelesTrak SupGP

Epoche: Sep 15, 2026, 04:13 UTC

1 68232C 26054A   26258.17618056  .00024292  00000+0  71778-3 0  2584
2 68232  53.1572 126.6042 0001093  81.4611 318.8854 15.34376067    11

Verfolge STARLINK-37027 in Echtzeit mit AllMySat

Download on the App Store